Epoch 2004 Mar. 16.0 TT = JDT 2453080.5
T 2004 Mar. 3.07823 TT MPC
q 3.6508526 (2000.0) P Q
n 0.06886614 Peri. 4.99908 +0.50346694 -0.80005225
a 5.8947523 Node 55.16130 +0.77830258 +0.25598204
e 0.3806606 Incl. 23.42153 +0.37518813 +0.54257682
P 14.31